Redwood City, CA

5:10 PM PDT on August 24, 2016 (GMT -0700)
San Carlos

Weather History for KSQL - February, 2012

Change the Weather History Date:

Saturday, February 11, 2012

  Actual Average Record
Temperature  
Mean Temperature 52 °F -  
Max Temperature 55 °F 62 °F 78 °F (1971)
Min Temperature 50 °F 42 °F 32 °F (1976)
Degree Days  
Heating Degree Days 12    
Growing Degree Days 2 (Base 50)    
Moisture  
Dew Point 47 °F    
Average Humidity 87    
Maximum Humidity 100    
Minimum Humidity 72    
Precipitation  
Precipitation 0.00 in - - ()
Sea Level Pressure  
Sea Level Pressure 30.07 in    
Wind  
Wind Speed 6 mph (West)    
Max Wind Speed 14 mph    
Max Gust Speed 20 mph    
Visibility 9 miles    
Events Rain    
Averages and records for this station are not official NWS values.
T = Trace of Precipitation, MM = Missing Value Source: NWS Daily Summary

Daily Weather History Graph

Daily Weather History Graph

Search for Another Location

Airport or City:

Trip Planner

Search our weather history database for the weather conditions in past years. The results will help you decide how hot, cold, wet, or windy it might be!

Date:

Astronomy

Feb. 11, 2012 Rise Set
Actual Time 7:03 AM PST 5:43 PM PST
Civil Twilight 6:36 AM PST 6:10 PM PST
Nautical Twilight 6:05 AM PST 6:41 PM PST
Astronomical Twilight 5:35 AM PST 7:12 PM PST
Moon 10:30 PM PST (2/11) 8:55 AM PST (2/11)
Length of Visible Light 11h 34m
Length of Day
10h 40m
Waning Gibbous, 81% of the Moon is Illuminated
Feb 11
Waning Gibbous
Feb 14
Last Quarter
Feb 21
New
Feb 29
First Quarter
Mar 8
Full

Hourly Weather History & Observations

Time (PST) Temp. Dew Point Humidity Pressure Visibility Wind Dir Wind Speed Gust Speed Precip Events Conditions
12:15 AM 51.8 °F 48.2 °F 88% 30.09 in 10.0 mi West 5.8 mph - N/A   Clear
12:35 AM 51.8 °F 48.2 °F 88% 30.09 in 10.0 mi West 9.2 mph - N/A   Partly Cloudy
12:55 AM 51.8 °F 48.2 °F 88% 30.09 in 10.0 mi WNW 6.9 mph - N/A   Mostly Cloudy
1:10 AM 51.8 °F 48.2 °F 88% 30.09 in 9.0 mi WSW 4.6 mph - N/A   Overcast
1:30 AM 51.8 °F 48.2 °F 88% 30.09 in 7.0 mi West 4.6 mph - N/A   Mostly Cloudy
1:55 AM 50.0 °F 48.2 °F 94% 30.08 in 2.5 mi West 8.1 mph - N/A   Overcast
2:15 AM 50.0 °F 48.2 °F 94% 30.09 in 7.0 mi West 5.8 mph - N/A   Overcast
2:35 AM 50.0 °F 48.2 °F 94% 30.08 in 6.0 mi Calm Calm - N/A   Overcast
2:50 AM 50.0 °F 48.2 °F 94% 30.08 in 7.0 mi Calm Calm - N/A   Overcast
3:10 AM 50.0 °F 50.0 °F 100% 30.08 in 10.0 mi Calm Calm - N/A   Overcast
3:30 AM 50.0 °F 48.2 °F 94% 30.07 in 5.0 mi Calm Calm - N/A Rain Light Rain
3:50 AM 50.0 °F 50.0 °F 100% 30.07 in 1.2 mi Calm Calm - N/A Rain Light Rain
4:15 AM 50.0 °F 50.0 °F 100% 30.07 in 2.0 mi Calm Calm - N/A Rain Light Rain
4:30 AM 50.0 °F 50.0 °F 100% 30.07 in 10.0 mi Calm Calm - N/A   Overcast
4:55 AM 50.0 °F 50.0 °F 100% 30.06 in 10.0 mi Calm Calm - N/A   Overcast
5:10 AM 50.0 °F 50.0 °F 100% 30.06 in 10.0 mi WSW 3.5 mph - N/A   Mostly Cloudy
5:30 AM 50.0 °F 48.2 °F 94% 30.06 in 10.0 mi West 4.6 mph - N/A   Overcast
5:55 AM 50.0 °F 48.2 °F 94% 30.06 in 10.0 mi WNW 4.6 mph - N/A   Overcast
6:15 AM 50.0 °F 48.2 °F 94% 30.06 in 10.0 mi West 6.9 mph - N/A   Overcast
6:30 AM 50.0 °F 48.2 °F 94% 30.07 in 10.0 mi WNW 5.8 mph - N/A   Overcast
6:47 AM 50.0 °F 48.2 °F 94% 30.07 in 10.0 mi WNW 8.1 mph - N/A   Mostly Cloudy
7:55 AM 50.0 °F 48.2 °F 94% 30.08 in 10.0 mi WNW 8.1 mph - N/A   Overcast
8:47 AM 51.8 °F 48.2 °F 88% 30.09 in 10.0 mi West 9.2 mph - N/A   Overcast
9:54 AM 53.6 °F 48.2 °F 82% 30.09 in 10.0 mi WNW 12.7 mph 17.3 mph N/A   Overcast
10:47 AM 53.6 °F 48.2 °F 82% 30.10 in 10.0 mi WNW 9.2 mph - N/A   Overcast
11:55 AM 55.4 °F 48.2 °F 77% 30.09 in 10.0 mi West 11.5 mph - N/A   Overcast
12:50 PM 55.4 °F 46.4 °F 72% 30.07 in 10.0 mi NW 11.5 mph - N/A   Mostly Cloudy
1:47 PM 55.4 °F 46.4 °F 72% 30.06 in 10.0 mi NW 10.4 mph - N/A   Overcast
2:50 PM 53.6 °F 48.2 °F 82% 30.04 in 10.0 mi WNW 8.1 mph - N/A   Overcast
3:58 PM 55.4 °F 46.4 °F 72% 30.02 in 10.0 mi WSW 8.1 mph - N/A   Scattered Clouds
4:47 PM 53.6 °F 46.4 °F 77% 30.03 in 10.0 mi West 11.5 mph - N/A   Scattered Clouds
5:49 PM 50.0 °F 46.4 °F 87% 30.05 in 10.0 mi West 13.8 mph 19.6 mph N/A   Mostly Cloudy
7:47 PM 51.8 °F 46.4 °F 82% 30.07 in 10.0 mi West 8.1 mph - N/A   Overcast
9:10 PM 50.0 °F 44.6 °F 82% 30.08 in 10.0 mi WNW 5.8 mph - N/A   Overcast
9:30 PM 50.0 °F 44.6 °F 82% 30.09 in 10.0 mi West 4.6 mph - N/A   Overcast
9:55 PM 50.0 °F 44.6 °F 82% 30.09 in 10.0 mi West 4.6 mph - N/A   Overcast
10:15 PM 50.0 °F 44.6 °F 82% 30.09 in 10.0 mi WSW 6.9 mph - N/A   Overcast
10:30 PM 50.0 °F 46.4 °F 87% 30.09 in 10.0 mi West 5.8 mph - N/A   Overcast
10:55 PM 50.0 °F 44.6 °F 82% 30.09 in 10.0 mi West 4.6 mph - N/A   Overcast
11:10 PM 50.0 °F 44.6 °F 82% 30.08 in 10.0 mi West 4.6 mph - N/A   Overcast
11:35 PM 50.0 °F 44.6 °F 82% 30.08 in 10.0 mi SW 4.6 mph - N/A   Overcast
11:55 PM 50.0 °F 44.6 °F 82% 30.07 in 10.0 mi SSW 4.6 mph - N/A   Overcast